YV3077 SVCS-SVBC

Flight info

Callsign YV3077
Flight time 0h 53m
Altitude 11500
Route DCT
Aircraft PA31/L-SDC/C

Departure

Time 2026-04-15 19:35
Airport Caracas Óscar Machado Zuloaga International Airport (SVCS)

Arrival

Time 2026-04-15 20:29
Airport General José Antonio Anzoategui International Airport (SVBC)
Time Latitude Longitude Altitude Speed Heading
2026-04-15 19:30 10.28876 -66.82059 2077 ft 0 kts 179°
2026-04-15 19:31 10.28857 -66.82076 2076 ft 7 kts 274°
2026-04-15 19:32 10.28832 -66.82123 2073 ft 9 kts 191°
2026-04-15 19:32 10.28782 -66.82140 2071 ft 11 kts 256°
2026-04-15 19:32 10.28787 -66.82237 2067 ft 18 kts 274°
2026-04-15 19:32 10.28799 -66.82379 2060 ft 20 kts 274°
2026-04-15 19:33 10.28802 -66.82503 2055 ft 10 kts 233°
2026-04-15 19:33 10.28797 -66.82507 2055 ft 0 kts 218°
2026-04-15 19:34 10.28785 -66.82513 2054 ft 9 kts 188°
2026-04-15 19:34 10.28751 -66.82505 2054 ft 0 kts 90°
2026-04-15 19:34 10.28746 -66.82425 2057 ft 40 kts 93°
2026-04-15 19:34 10.28714 -66.81946 2079 ft 90 kts 93°
2026-04-15 19:35 10.28650 -66.81268 2241 ft 98 kts 98°
2026-04-15 19:35 10.28514 -66.80559 2487 ft 105 kts 101°
2026-04-15 19:35 10.28336 -66.79860 2715 ft 100 kts 95°
2026-04-15 19:35 10.28339 -66.79167 2906 ft 98 kts 88°
2026-04-15 19:36 10.28337 -66.78474 3099 ft 97 kts 89°
2026-04-15 19:36 10.28319 -66.77776 3220 ft 103 kts 90°
2026-04-15 19:36 10.28284 -66.77032 3362 ft 108 kts 91°
2026-04-15 19:36 10.28235 -66.76256 3529 ft 111 kts 92°
2026-04-15 19:37 10.28180 -66.75468 3697 ft 112 kts 92°
2026-04-15 19:37 10.28118 -66.74670 3873 ft 114 kts 92°
2026-04-15 19:37 10.28055 -66.73861 4007 ft 118 kts 92°
2026-04-15 19:37 10.27986 -66.73023 4142 ft 120 kts 92°
2026-04-15 19:38 10.27922 -66.72176 4279 ft 121 kts 93°
2026-04-15 19:38 10.27853 -66.71310 4420 ft 122 kts 93°
2026-04-15 19:38 10.27785 -66.70449 4576 ft 123 kts 93°
2026-04-15 19:38 10.27717 -66.69586 4727 ft 123 kts 93°
2026-04-15 19:39 10.27644 -66.68722 4877 ft 123 kts 92°
2026-04-15 19:39 10.27576 -66.67850 5039 ft 124 kts 92°
2026-04-15 19:39 10.27507 -66.66985 5202 ft 124 kts 92°
2026-04-15 19:39 10.27440 -66.66110 5366 ft 124 kts 92°
2026-04-15 19:40 10.27369 -66.65232 5544 ft 125 kts 93°
2026-04-15 19:40 10.27297 -66.64352 5707 ft 125 kts 92°
2026-04-15 19:40 10.27224 -66.63467 5864 ft 125 kts 93°
2026-04-15 19:40 10.27156 -66.62591 6037 ft 125 kts 92°
2026-04-15 19:41 10.27085 -66.61709 6208 ft 126 kts 93°
2026-04-15 19:41 10.27014 -66.60826 6375 ft 126 kts 93°
2026-04-15 19:41 10.26945 -66.59933 6550 ft 126 kts 93°
2026-04-15 19:41 10.26873 -66.59049 6713 ft 126 kts 94°
2026-04-15 19:42 10.26802 -66.58156 6882 ft 126 kts 94°
2026-04-15 19:42 10.26730 -66.57269 7049 ft 127 kts 93°
2026-04-15 19:42 10.26661 -66.56381 7217 ft 127 kts 94°
2026-04-15 19:42 10.26588 -66.55482 7372 ft 128 kts 93°
2026-04-15 19:43 10.26516 -66.54582 7532 ft 128 kts 94°
2026-04-15 19:43 10.26444 -66.53682 7687 ft 129 kts 94°
2026-04-15 19:43 10.26369 -66.52776 7858 ft 129 kts 94°
2026-04-15 19:43 10.26299 -66.51868 8034 ft 129 kts 94°
2026-04-15 19:44 10.26225 -66.50955 8196 ft 130 kts 95°
2026-04-15 19:44 10.26153 -66.50040 8352 ft 130 kts 95°
2026-04-15 19:44 10.26076 -66.49118 8536 ft 131 kts 95°
2026-04-15 19:44 10.26002 -66.48189 8712 ft 132 kts 94°
2026-04-15 19:45 10.25928 -66.47261 8881 ft 133 kts 94°
2026-04-15 19:45 10.25855 -66.46347 9051 ft 133 kts 95°
2026-04-15 19:45 10.25776 -66.45400 9219 ft 134 kts 95°
2026-04-15 19:45 10.25704 -66.44456 9407 ft 134 kts 96°
2026-04-15 19:46 10.25625 -66.43507 9578 ft 135 kts 96°
2026-04-15 19:46 10.25549 -66.42551 9747 ft 136 kts 95°
2026-04-15 19:46 10.25472 -66.41600 9922 ft 136 kts 95°
2026-04-15 19:46 10.25392 -66.40630 10102 ft 137 kts 96°
2026-04-15 19:47 10.25316 -66.39672 10267 ft 138 kts 96°
2026-04-15 19:47 10.25236 -66.38697 10435 ft 139 kts 96°
2026-04-15 19:47 10.25159 -66.37711 10607 ft 139 kts 96°
2026-04-15 19:47 10.25078 -66.36734 10776 ft 140 kts 97°
2026-04-15 19:48 10.24998 -66.35741 10947 ft 141 kts 96°
2026-04-15 19:48 10.24919 -66.34750 11119 ft 142 kts 97°
2026-04-15 19:48 10.24836 -66.33758 11288 ft 142 kts 96°
2026-04-15 19:48 10.24753 -66.32721 11312 ft 154 kts 97°
2026-04-15 19:49 10.24662 -66.31597 11316 ft 165 kts 96°
2026-04-15 19:49 10.24566 -66.30402 11303 ft 175 kts 96°
2026-04-15 19:49 10.24470 -66.29172 11288 ft 175 kts 96°
2026-04-15 19:49 10.24371 -66.27943 11301 ft 175 kts 96°
2026-04-15 19:50 10.24271 -66.26697 11296 ft 175 kts 96°
2026-04-15 19:50 10.24171 -66.25470 11296 ft 175 kts 96°
2026-04-15 19:50 10.24068 -66.24233 11293 ft 175 kts 96°
2026-04-15 19:50 10.23969 -66.23006 11289 ft 175 kts 96°
2026-04-15 19:51 10.23872 -66.21779 11303 ft 175 kts 96°
2026-04-15 19:51 10.23773 -66.20552 11309 ft 176 kts 96°
2026-04-15 19:51 10.23670 -66.19308 11300 ft 176 kts 96°
2026-04-15 19:51 10.23567 -66.18070 11304 ft 177 kts 96°
2026-04-15 19:52 10.23469 -66.16821 11297 ft 177 kts 96°
2026-04-15 19:52 10.23367 -66.15580 11296 ft 176 kts 96°
2026-04-15 19:52 10.23264 -66.14338 11294 ft 176 kts 96°
2026-04-15 19:52 10.23164 -66.13116 11296 ft 176 kts 96°
2026-04-15 19:53 10.23063 -66.11870 11281 ft 175 kts 96°
2026-04-15 19:53 10.22964 -66.10644 11306 ft 174 kts 96°
2026-04-15 19:53 10.22863 -66.09405 11310 ft 175 kts 96°
2026-04-15 19:53 10.22764 -66.08180 11309 ft 176 kts 96°
2026-04-15 19:54 10.22662 -66.06937 11303 ft 177 kts 96°
2026-04-15 19:54 10.22562 -66.05733 11293 ft 177 kts 96°
2026-04-15 19:54 10.22463 -66.04479 11304 ft 177 kts 96°
2026-04-15 19:54 10.22360 -66.03230 11303 ft 177 kts 96°
2026-04-15 19:55 10.22256 -66.01989 11298 ft 177 kts 96°
2026-04-15 19:55 10.22155 -66.00742 11298 ft 177 kts 96°
2026-04-15 19:55 10.22052 -65.99501 11290 ft 177 kts 96°
2026-04-15 19:55 10.21952 -65.98256 11283 ft 176 kts 96°
2026-04-15 19:56 10.21850 -65.97021 11294 ft 175 kts 96°
2026-04-15 19:56 10.21750 -65.95789 11302 ft 174 kts 96°
2026-04-15 19:56 10.21647 -65.94573 11308 ft 176 kts 96°
2026-04-15 19:56 10.21546 -65.93326 11301 ft 177 kts 96°
2026-04-15 19:57 10.21445 -65.92083 11298 ft 177 kts 96°
2026-04-15 19:57 10.21342 -65.90848 11295 ft 176 kts 96°
2026-04-15 19:57 10.21242 -65.89603 11292 ft 176 kts 96°
2026-04-15 19:57 10.21138 -65.88372 11292 ft 175 kts 96°
2026-04-15 19:58 10.21038 -65.87135 11304 ft 175 kts 96°
2026-04-15 19:58 10.20936 -65.85902 11314 ft 176 kts 96°
2026-04-15 19:58 10.20834 -65.84654 11312 ft 177 kts 96°
2026-04-15 19:58 10.20730 -65.83412 11298 ft 177 kts 96°
2026-04-15 19:59 10.20629 -65.82165 11296 ft 177 kts 96°
2026-04-15 19:59 10.20527 -65.80937 11301 ft 176 kts 96°
2026-04-15 19:59 10.20424 -65.79684 11303 ft 176 kts 96°
2026-04-15 19:59 10.20319 -65.78443 11303 ft 176 kts 96°
2026-04-15 20:00 10.20221 -65.77206 11295 ft 176 kts 96°
2026-04-15 20:00 10.20116 -65.75973 11308 ft 175 kts 96°
2026-04-15 20:00 10.20015 -65.74747 11312 ft 176 kts 96°
2026-04-15 20:00 10.19913 -65.73511 11317 ft 177 kts 97°
2026-04-15 20:01 10.19810 -65.72259 11305 ft 177 kts 96°
2026-04-15 20:01 10.19706 -65.71002 11295 ft 177 kts 96°
2026-04-15 20:01 10.19605 -65.69763 11300 ft 176 kts 96°
2026-04-15 20:01 10.19499 -65.68526 11306 ft 176 kts 96°
2026-04-15 20:02 10.19399 -65.67291 11307 ft 176 kts 96°
2026-04-15 20:02 10.19294 -65.66048 11310 ft 177 kts 96°
2026-04-15 20:02 10.19191 -65.64799 11307 ft 177 kts 96°
2026-04-15 20:02 10.19089 -65.63557 11295 ft 177 kts 96°
2026-04-15 20:03 10.18984 -65.62328 11296 ft 176 kts 96°
2026-04-15 20:03 10.18881 -65.61088 11303 ft 175 kts 96°
2026-04-15 20:03 10.18780 -65.59846 11312 ft 176 kts 96°
2026-04-15 20:03 10.18679 -65.58615 11311 ft 177 kts 96°
2026-04-15 20:04 10.18577 -65.57396 11306 ft 178 kts 96°
2026-04-15 20:04 10.18472 -65.56142 11295 ft 177 kts 96°
2026-04-15 20:04 10.18368 -65.54905 11303 ft 177 kts 96°
2026-04-15 20:04 10.18265 -65.53656 11299 ft 177 kts 96°
2026-04-15 20:05 10.18162 -65.52422 11295 ft 177 kts 96°
2026-04-15 20:05 10.18057 -65.51172 11294 ft 176 kts 96°
2026-04-15 20:05 10.17955 -65.49941 11294 ft 176 kts 96°
2026-04-15 20:05 10.17853 -65.48709 11303 ft 176 kts 96°
2026-04-15 20:06 10.17747 -65.47469 11308 ft 176 kts 96°
2026-04-15 20:06 10.17643 -65.46220 11301 ft 177 kts 96°
2026-04-15 20:06 10.17539 -65.44968 11293 ft 177 kts 96°
2026-04-15 20:06 10.17435 -65.43727 11302 ft 176 kts 96°
2026-04-15 20:07 10.17332 -65.42488 11296 ft 177 kts 96°
2026-04-15 20:07 10.17228 -65.41245 11293 ft 177 kts 96°
2026-04-15 20:07 10.17122 -65.40001 11292 ft 176 kts 96°
2026-04-15 20:07 10.17022 -65.38798 11299 ft 176 kts 96°
2026-04-15 20:08 10.16918 -65.37552 11296 ft 177 kts 96°
2026-04-15 20:08 10.16813 -65.36313 11291 ft 176 kts 96°
2026-04-15 20:08 10.16709 -65.35077 11295 ft 176 kts 96°
2026-04-15 20:08 10.16607 -65.33823 11293 ft 177 kts 96°
2026-04-15 20:09 10.16501 -65.32591 11294 ft 177 kts 96°
2026-04-15 20:09 10.16398 -65.31346 11293 ft 176 kts 96°
2026-04-15 20:09 10.16293 -65.30099 11295 ft 177 kts 96°
2026-04-15 20:09 10.16187 -65.28853 11289 ft 177 kts 96°
2026-04-15 20:10 10.16082 -65.27610 11294 ft 177 kts 96°
2026-04-15 20:10 10.15978 -65.26369 11291 ft 177 kts 96°
2026-04-15 20:10 10.15873 -65.25118 11286 ft 177 kts 96°
2026-04-15 20:10 10.15770 -65.23880 11286 ft 177 kts 96°
2026-04-15 20:11 10.15664 -65.22627 11284 ft 176 kts 96°
2026-04-15 20:11 10.15561 -65.21395 11293 ft 176 kts 96°
2026-04-15 20:11 10.15455 -65.20152 11297 ft 177 kts 96°
2026-04-15 20:11 10.15348 -65.18903 11292 ft 177 kts 96°
2026-04-15 20:12 10.15243 -65.17673 11288 ft 177 kts 96°
2026-04-15 20:12 10.15145 -65.16503 11291 ft 176 kts 96°
2026-04-15 20:12 10.15039 -65.15270 11281 ft 176 kts 96°
2026-04-15 20:12 10.14935 -65.14037 11291 ft 175 kts 96°
2026-04-15 20:13 10.14831 -65.12804 11297 ft 173 kts 96°
2026-04-15 20:13 10.14730 -65.11601 11212 ft 171 kts 96°
2026-04-15 20:13 10.14628 -65.10394 11021 ft 172 kts 96°
2026-04-15 20:13 10.14525 -65.09174 10826 ft 171 kts 96°
2026-04-15 20:14 10.14423 -65.07981 10654 ft 170 kts 96°
2026-04-15 20:14 10.14322 -65.06799 10466 ft 168 kts 95°
2026-04-15 20:14 10.14221 -65.05627 10286 ft 167 kts 95°
2026-04-15 20:14 10.14122 -65.04450 10094 ft 166 kts 95°
2026-04-15 20:15 10.14022 -65.03281 9910 ft 165 kts 95°
2026-04-15 20:15 10.13924 -65.02130 9738 ft 164 kts 95°
2026-04-15 20:15 10.13828 -65.00979 9566 ft 162 kts 95°
2026-04-15 20:15 10.13732 -64.99851 9392 ft 161 kts 95°
2026-04-15 20:16 10.13636 -64.98712 9210 ft 160 kts 95°
2026-04-15 20:16 10.13542 -64.97599 9028 ft 159 kts 95°
2026-04-15 20:16 10.13447 -64.96478 8835 ft 158 kts 95°
2026-04-15 20:16 10.13352 -64.95370 8647 ft 157 kts 95°
2026-04-15 20:17 10.13259 -64.94272 8470 ft 157 kts 95°
2026-04-15 20:17 10.13165 -64.93173 8297 ft 156 kts 95°
2026-04-15 20:17 10.13072 -64.92082 8137 ft 156 kts 95°
2026-04-15 20:17 10.12980 -64.90989 7950 ft 155 kts 95°
2026-04-15 20:18 10.12888 -64.89902 7761 ft 155 kts 95°
2026-04-15 20:18 10.12793 -64.88807 7584 ft 154 kts 95°
2026-04-15 20:18 10.12703 -64.87737 7404 ft 153 kts 95°
2026-04-15 20:18 10.12612 -64.86660 7229 ft 153 kts 95°
2026-04-15 20:19 10.12518 -64.85591 7049 ft 152 kts 95°
2026-04-15 20:19 10.12426 -64.84524 6871 ft 152 kts 95°
2026-04-15 20:19 10.12336 -64.83448 6693 ft 151 kts 95°
2026-04-15 20:19 10.12247 -64.82403 6516 ft 150 kts 96°
2026-04-15 20:20 10.12156 -64.81336 6344 ft 149 kts 95°
2026-04-15 20:20 10.12065 -64.80301 6179 ft 149 kts 95°
2026-04-15 20:20 10.11977 -64.79251 5998 ft 148 kts 95°
2026-04-15 20:20 10.11887 -64.78219 5828 ft 148 kts 95°
2026-04-15 20:21 10.11797 -64.77179 5644 ft 147 kts 95°
2026-04-15 20:21 10.11708 -64.76147 5460 ft 147 kts 95°
2026-04-15 20:21 10.11620 -64.75118 5268 ft 147 kts 94°
2026-04-15 20:21 10.11529 -64.74068 5078 ft 148 kts 94°
2026-04-15 20:22 10.11773 -64.73083 4883 ft 151 kts 54°
2026-04-15 20:22 10.12492 -64.72303 4741 ft 152 kts 47°
2026-04-15 20:22 10.13249 -64.71533 4568 ft 152 kts 46°
2026-04-15 20:22 10.13995 -64.70774 4414 ft 152 kts 47°
2026-04-15 20:23 10.14856 -64.70325 4258 ft 157 kts
2026-04-15 20:23 10.15885 -64.70675 4098 ft 162 kts 324°
2026-04-15 20:23 10.16689 -64.71468 3933 ft 163 kts 314°
2026-04-15 20:23 10.17455 -64.72324 3761 ft 162 kts 314°
2026-04-15 20:24 10.18206 -64.73176 3589 ft 160 kts 314°
2026-04-15 20:24 10.18459 -64.75213 3239 ft 159 kts 231°
2026-04-15 20:24 10.17538 -64.75794 3072 ft 159 kts 186°
2026-04-15 20:25 10.16487 -64.75581 2875 ft 159 kts 142°
2026-04-15 20:25 10.15678 -64.74837 2654 ft 155 kts 122°
2026-04-15 20:25 10.15105 -64.73923 2421 ft 146 kts 108°
2026-04-15 20:25 10.15119 -64.73010 2263 ft 126 kts 60°
2026-04-15 20:26 10.15857 -64.72543 2015 ft 134 kts
2026-04-15 20:26 10.16726 -64.72907 1806 ft 146 kts 314°
2026-04-15 20:26 10.16952 -64.73906 1667 ft 151 kts 257°
2026-04-15 20:26 10.16287 -64.74666 1547 ft 146 kts 199°
2026-04-15 20:27 10.15323 -64.74600 1344 ft 135 kts 141°
2026-04-15 20:27 10.14717 -64.73929 1170 ft 126 kts 116°
2026-04-15 20:27 10.14319 -64.73163 954 ft 118 kts 108°
2026-04-15 20:27 10.13969 -64.72451 793 ft 100 kts 113°
2026-04-15 20:28 10.13654 -64.71889 637 ft 90 kts 111°
2026-04-15 20:28 10.13339 -64.71297 460 ft 100 kts 112°
2026-04-15 20:28 10.12933 -64.70699 294 ft 104 kts 129°
2026-04-15 20:28 10.12396 -64.70230 139 ft 100 kts 135°
2026-04-15 20:29 10.11868 -64.69816 47 ft 85 kts 137°
2026-04-15 20:29 10.11483 -64.69495 41 ft 58 kts 141°
2026-04-15 20:29 10.11199 -64.69280 41 ft 45 kts 142°
2026-04-15 20:29 10.10968 -64.69101 41 ft 38 kts 140°
2026-04-15 20:30 10.10780 -64.68954 42 ft 31 kts 141°
2026-04-15 20:30 10.10737 -64.68863 42 ft 3 kts 79°
2026-04-15 20:30 10.10747 -64.68822 42 ft 7 kts 72°
2026-04-15 20:30 10.10753 -64.68802 42 ft 0 kts 76°
2026-04-15 20:31 10.10756 -64.68792 42 ft 5 kts 77°
2026-04-15 20:31 10.10762 -64.68728 42 ft 10 kts 108°
2026-04-15 20:31 10.10748 -64.68692 42 ft 4 kts 80°
2026-04-15 20:31 10.10763 -64.68690 42 ft 2 kts 343°
2026-04-15 20:32 10.10776 -64.68692 42 ft 0 kts 349°
2026-04-15 20:32 10.10776 -64.68693 42 ft 0 kts 349°